FREGAT DEB, 45889

Orbit data source: Space-Track

FREGAT DEB, 45889 is space debris in LEO originally from a launch on Mon, 18 Jul 2011 UTC launched from the Tyuratam Missile And Space Complex (TTMTR). Debris objects in space refer to the collection of defunct objects orbiting the Earth. Examples of debris include non-operational satellites, rocket bodies, and fragments generated from explosions, collisions, or faulty payload assembly.

Loading next visibility...
Identifier
45889, 2011-037DJ
Orbit
LEO
Last TLE update
12 hours ago
Origin
Manufacturer
Lavochkin
Mission
Spacecraft
Bus & Motor
Unknown
Mass
Unknown
Launch date (UTC)
2011-07-18 (14 years ago)
Launch vehicle
Unknown
Launch site
Tyuratam Missile And Space Complex (TTMTR)
Object type
Payload
Rocket body
Debris
Shape & HBR
Unknown
Radar Cross Section
Small (<0.1 m²)

Expand to show TLE details & history

TLE from 12 hours ago
0 FREGAT DEB
1 45889U 11037DJ  25187.42774079  .00056476  00000-0  71579-2 0  9998
2 45889  51.3368 237.0170 0916833   6.9362 354.3273 13.38906358215379
Epoch: 2025-07-06T10:15Z
TLE epoch observation values (Epoch: 2025-07-06T10:15:56.804Z)
Latitude
-0.00005°
Longitude
158.37869°
Altitude
431.247 km
Speed
7.995 km/s
True Right ascension
15h 48m 04s
True Declination
0° 00' 00"
Sunlit
Object was in full shadow at epoch
Visualization orbit readout
Latitude
-39.18399°
Longitude
116.0886°
Altitude
756.73 km
Speed
7.658 km/s
Apparent Right ascension
17h 04m 14s
Apparent Declination
-69° 00' 15"
Sunlit
Object is in daylight
Visualization observer readout
Local Sidereal Time
10:34:47
Azimuth
152.636° SSE
Elevation
-39.367°
Doppler factor
1
Orbital elements
Apogee altitude
1,800.761 km
Perigee altitude
426.977 km
Semi-major axis
7,492.006 km
Eccentricity
0.09168
Inclination
51.3368°
RAAN
237.017°
Arg. of periapsis
6.9362°
True anomaly
Unknown
Mean anomaly
354.3273°
Eccentric anomaly
Unknown
Mean motion
3.34692 °/min
Orbital period
107.56 mins
BSTAR
0.0071579
Loading maneuver chart data...
Loading SW <> Apogee altitude chart data...
Loading historical data...
Loading historical data...
Loading historical data...
Loading historical data...
Loading historical data...
Loading historical data...
Loading historical data...

FREGAT DEB Visibility forecast

Observer location: undefined°, undefined°

Span
Click to sort rows by Start time (UTC) header in descending order
Start Az.
Max El. time (UTC)
Max El. Az.
Max El.
End time (UTC)
End Az.
8 mins2025-07-07 06:08:37.662Z224.977° SW2025-07-07 06:11:37.662Z173.01° S43.839°2025-07-07 06:16:37.662Z55.576° ENE
8 mins2025-07-07 08:01:37.662Z292.821° NW2025-07-07 08:04:37.662Z346.624° N27.55°2025-07-07 08:09:37.662Z46.838° ENE
10 mins2025-07-07 09:54:37.662Z317.822° NNW2025-07-07 09:58:37.662Z12.781° NNE27.207°2025-07-07 10:04:37.662Z68.859° E
14 mins2025-07-07 11:46:37.662Z313.433° NW2025-07-07 11:52:37.662Z45.604° ENE41.015°2025-07-07 12:00:37.662Z109.427° ESE
15 mins2025-07-07 13:39:37.662Z291.661° WNW2025-07-07 13:45:37.662Z216.058° SW38.018°2025-07-07 13:54:37.662Z154.315° SSE
7 mins2025-07-07 15:34:37.662Z256.747° W2025-07-07 15:37:37.662Z237.081° WSW13.373°2025-07-07 15:41:37.662Z213.622° SW
|